This demonstration page uses our WeatherBlox Daily Observations layout. Learn more.

41.55636, -103.73856

Hourly Observations for December 11, 2015

Temp ( °F °C ) Dew Point ( °F °C ) Humidity (%) Winds ( mph kmh ) Pressure ( in mb ) Visibility ( mi km ) Precip ( " mm )
12:53 am 00:53 Clear 29 -1.7 23 -5 78 78 N 5 7 29.49 999 10 16.0934 0 0
1:53 am 01:53 Clear 44 6.7 28 -2.2 53 53 WNW 23 37 29.44 997 10 16.0934 0 0
2:53 am 02:53 Clear 43 6.1 27 -2.8 53 53 WNW 24 39 29.45 997 10 16.0934 0 0
3:53 am 03:53 Clear 43 6.1 24 -4.4 47 47 WNW 17 28 29.47 998 10 16.0934 0 0
4:53 am 04:53 Clear 42 5.6 23 -5 47 47 WNW 15 24 29.49 999 10 16.0934 0 0
5:53 am 05:53 Clear 38 3.3 23 -5 55 55 WNW 13 20 29.55 1001 10 16.0934 0 0
6:53 am 06:53 Clear 40 4.4 23 -5 51 51 NW 15 24 29.55 1001 10 16.0934 0 0
7:53 am 07:53 Sunny 40 4.4 23 -5 51 51 NW 18 30 29.56 1001 10 16.0934 0 0
8:53 am 08:53 Partly Cloudy 43 6.1 26 -3.3 51 51 NW 20 31 29.57 1001 10 16.0934 0 0
9:53 am 09:53 Mostly Sunny 43 6.1 26 -3.3 51 51 NW 9 15 29.65 1004 10 16.0934 0 0
10:53 am 10:53 Mostly Sunny 46 7.8 26 -3.3 46 46 NW 12 19 29.66 1005 10 16.0934 0 0
11:53 am 11:53 Cloudy 46 7.8 23 -5 40 40 NNW 12 19 29.67 1005 10 16.0934 0 0
12:53 pm 12:53 Cloudy 47 8.3 23 -5 39 39 N 8 13 29.68 1005 10 16.0934 0 0
1:53 pm 13:53 Mostly Cloudy 49 9.4 21 -6.1 33 33 NNW 9 15 29.64 1004 10 16.0934 0 0
2:53 pm 14:53 Cloudy 47 8.3 22 -5.6 37 37 NE 8 13 29.66 1004 10 16.0934 0 0
3:53 pm 15:53 Mostly Sunny 42 5.6 22 -5.6 45 45 NNE 8 13 29.7 1006 10 16.0934 0 0
4:53 pm 16:53 Clear 36 2.2 22 -5.6 57 57 NE 9 15 29.74 1007 10 16.0934 0 0
5:53 pm 17:53 Mostly Cloudy 34 1.1 22 -5.6 61 61 NNE 8 13 29.77 1008 10 16.0934 0 0
6:53 pm 18:53 Cloudy 33 0.6 23 -5 66 66 NNE 8 13 29.78 1008 10 16.0934 0 0
7:53 pm 19:53 Mostly Cloudy 32 0 23 -5 69 69 SSW 5 7 29.8 1009 10 16.0934 0 0
8:53 pm 20:53 Cloudy 33 0.6 25 -3.9 72 72 Calm 29.79 1009 10 16.0934 0 0
9:53 pm 21:53 Cloudy 34 1.1 25 -3.9 70 70 Calm 29.8 1009 10 16.0934 0 0
10:53 pm 22:53 Cloudy 35 1.7 25 -3.9 67 67 ESE 3 6 29.8 1009 10 16.0934 0 0
11:53 pm 23:53 Cloudy 33 0.6 26 -3.3 75 75 Calm 29.82 1010 10 16.0934 0 0

Powered by AerisWeather